Santuari del Coll - Susqueda





Hora UTC 13:55
Temperatura 16.5 ºC
Humitat 75.0 %
Pressió 1015.8 hPa
Pluja 0.2 mm
Velocitat vent 8.0 km/h
Direcció vent ESE

Dades diàries 2021-09-19



Hora UTC (hivern +1h; estiu +2h)
Temperatura (ºC) Humitat (%) Pressió (hPa) Velocitat vent (km/h) Precipitació (mm)
Hora UTC Aire Humitat Pressió Vel. Dir. Vel. Max Dir. Intent. màx 5 min.
00:05 13.7 96.0 1012.5 0.0 SSE 0.0 0.0
00:10 13.7 95.0 1012.6 0.0 SSE 0.0 0.0
00:15 13.7 95.0 1012.8 4.8 SSE 4.8 0.0
00:20 13.6 95.0 1012.8 0.0 SSE 4.8 0.0
00:25 13.5 95.0 1012.8 0.0 SSE 4.8 0.0
00:30 13.5 95.0 1012.9 0.0 SSE 4.8 0.0
00:35 13.6 95.0 1013.0 0.0 S 4.8 0.0
00:40 13.7 95.0 1013.0 0.0 ENE 6.4 0.0
00:45 13.7 95.0 1013.1 0.0 ENE 6.4 0.0
00:50 13.7 95.0 1013.1 3.2 ESE 4.8 0.0
00:55 13.6 95.0 1013.1 1.6 ESE 6.4 0.0
01:00 13.5 95.0 1012.9 0.0 ESE 3.2 0.0
01:05 13.6 95.0 1012.9 1.6 ESE 3.2 0.0
01:10 13.6 95.0 1012.9 3.2 ENE 6.4 0.0
01:15 13.5 95.0 1012.7 4.8 ESE 6.4 0.0
01:20 13.3 95.0 1012.8 1.6 SE 8.0 0.0
01:25 13.3 95.0 1012.8 3.2 SE 8.0 0.0
01:30 13.1 96.0 1012.8 0.0 SSE 6.4 0.0
01:35 12.9 96.0 1012.8 0.0 SSW 12.9 0.0
01:40 12.8 95.0 1012.8 1.6 SSE 12.9 0.0
01:45 12.7 96.0 1012.9 1.6 SSW 4.8 0.0
01:50 12.6 95.0 1012.9 0.0 SSW 4.8 0.0
01:55 12.4 95.0 1013.0 0.0 SSW 4.8 0.0
02:00 12.4 95.0 1012.9 1.6 WNW 4.8 0.0
02:05 12.3 95.0 1012.9 6.4 NNW 8.0 0.0
02:10 12.3 95.0 1013.0 1.6 NNW 8.0 0.0
02:15 12.4 95.0 1013.0 0.0 NNW 4.8 0.0
02:20 12.4 95.0 1013.0 1.6 NNW 4.8 0.0
02:25 12.6 95.0 1013.0 1.6 NNW 4.8 0.0
02:30 12.5 95.0 1012.9 1.6 NW 6.4 0.0
02:35 12.5 95.0 1012.9 4.8 ESE 6.4 0.0
02:40 12.3 95.0 1012.9 0.0 ESE 6.4 0.0
02:45 12.2 95.0 1012.9 1.6 ESE 3.2 0.0
02:50 12.1 95.0 1012.8 4.8 ESE 4.8 0.0
02:55 11.9 96.0 1012.9 1.6 W 4.8 0.0
03:00 11.8 96.0 1012.9 1.6 WSW 4.8 0.0
03:05 11.6 96.0 1012.8 1.6 SW 4.8 0.0
03:10 11.4 96.0 1012.9 0.0 W 8.0 0.0
03:15 11.3 95.0 1012.9 3.2 SW 11.3 0.0
03:20 11.3 95.0 1012.9 9.7 W 16.1 0.0
03:25 11.4 95.0 1013.0 3.2 SSW 16.1 0.0
03:30 11.6 95.0 1013.0 4.8 W 14.5 0.0
03:35 11.6 95.0 1013.0 4.8 W 11.3 0.0
03:40 11.6 95.0 1013.0 6.4 S 9.7 0.0
03:45 11.7 95.0 1013.0 8.0 NW 17.7 0.0
03:50 11.7 95.0 1013.0 3.2 WSW 17.7 0.0
03:55 11.6 95.0 1013.0 6.4 W 17.7 0.2
04:00 11.3 95.0 1013.1 3.2 WNW 17.7 0.0
04:05 11.2 95.0 1013.1 4.8 W 14.5 0.0
04:10 11.0 96.0 1013.1 20.9 WSW 20.9 0.0
04:15 10.7 96.0 1013.1 8.0 WSW 20.9 0.0
04:20 10.5 96.0 1013.2 4.8 WSW 17.7 0.0
04:25 10.4 95.0 1013.2 4.8 W 16.1 0.0
04:30 10.4 95.0 1013.1 6.4 W 14.5 0.0
04:35 10.3 95.0 1013.0 4.8 WNW 14.5 0.0
04:40 10.4 95.0 1013.1 12.9 W 14.5 0.0
04:45 10.3 95.0 1013.1 6.4 S 16.1 0.0
04:50 10.3 96.0 1013.1 3.2 ENE 11.3 0.0
04:55 10.2 96.0 1013.2 8.0 WSW 12.9 0.0
05:00 10.1 96.0 1013.3 9.7 W 14.5 0.0
05:05 10.1 95.0 1013.3 8.0 WSW 14.5 0.0
05:10 10.1 95.0 1013.5 3.2 SSW 14.5 0.0
05:15 10.1 95.0 1013.7 9.7 W 12.9 0.0
05:20 10.0 95.0 1013.6 6.4 SW 12.9 0.0
05:25 10.1 95.0 1013.7 6.4 WSW 12.9 0.0
05:30 10.2 95.0 1013.7 4.8 W 12.9 0.0
05:35 10.2 95.0 1013.9 6.4 WSW 11.3 0.0
05:40 10.1 95.0 1013.9 1.6 SW 11.3 0.0
05:45 9.9 96.0 1013.9 3.2 S 11.3 0.0
05:50 9.8 96.0 1014.0 3.2 SW 8.0 0.0
05:55 9.9 95.0 1014.1 4.8 WNW 11.3 0.0
06:00 10.0 95.0 1014.3 3.2 SW 11.3 0.0
06:05 10.1 95.0 1014.3 4.8 SW 11.3 0.0
06:10 10.1 95.0 1014.4 6.4 WSW 8.0 0.0
06:15 10.2 95.0 1014.5 1.6 SSW 11.3 0.0
06:20 10.1 96.0 1014.4 3.2 WSW 12.9 0.0
06:25 10.1 95.0 1014.6 6.4 WSW 12.9 0.0
06:30 10.2 95.0 1014.6 4.8 W 11.3 0.0
06:35 10.3 95.0 1014.6 3.2 SW 12.9 0.0
06:40 10.4 95.0 1014.7 1.6 WSW 12.9 0.0
06:45 10.5 96.0 1014.8 1.6 SW 9.7 0.0
06:50 10.6 96.0 1014.8 1.6 SSW 9.7 0.0
06:55 11.1 95.0 1014.8 0.0 SSW 4.8 0.0
07:00 11.6 95.0 1014.8 6.4 E 6.4 0.0
07:05 12.1 95.0 1014.9 1.6 E 6.4 0.0
07:10 12.5 95.0 1015.0 0.0 E 3.2 0.0
07:15 12.7 96.0 1015.0 0.0 E 1.6 0.0
07:20 12.9 96.0 1015.1 0.0 E 1.6 0.0
07:25 13.3 96.0 1015.1 0.0 E 1.6 0.0
07:30 13.8 95.0 1015.1 1.6 E 4.8 0.0
07:35 14.1 94.0 1015.0 0.0 E 4.8 0.0
07:40 14.3 94.0 1015.1 0.0 E 3.2 0.0
07:45 14.5 92.0 1015.0 0.0 E 3.2 0.0
07:50 14.3 90.0 1015.0 3.2 ESE 6.4 0.0
07:55 14.5 90.0 1015.1 3.2 ESE 9.7 0.0
08:00 14.4 88.0 1015.1 1.6 ESE 9.7 0.0
08:05 14.8 89.0 1015.1 3.2 ESE 6.4 0.0
08:10 14.8 89.0 1015.3 3.2 ESE 6.4 0.0
08:15 14.7 86.0 1015.3 1.6 S 11.3 0.0
08:20 14.7 83.0 1015.4 3.2 S 11.3 0.0
08:25 14.8 83.0 1015.5 3.2 WSW 6.4 0.0
08:30 15.1 84.0 1015.5 6.4 E 6.4 0.0
08:35 15.4 81.0 1015.5 1.6 W 8.0 0.0
08:40 15.6 82.0 1015.5 1.6 SSW 8.0 0.0
08:45 15.7 83.0 1015.7 9.7 E 12.9 0.0
08:50 15.7 83.0 1015.7 3.2 E 12.9 0.0
08:55 15.6 81.0 1015.8 3.2 E 6.4 0.0
09:00 15.7 83.0 1015.8 1.6 ESE 6.4 0.0
09:05 15.7 81.0 1015.8 1.6 ESE 6.4 0.0
09:10 15.6 81.0 1015.9 1.6 E 9.7 0.0
09:15 15.6 82.0 1015.9 8.0 E 9.7 0.0
09:20 15.7 81.0 1016.0 3.2 E 11.3 0.0
09:25 15.9 82.0 1016.0 3.2 E 6.4 0.0
09:30 16.2 81.0 1016.0 0.0 E 3.2 0.0
09:35 16.0 81.0 1016.2 3.2 ESE 4.8 0.0
09:40 15.6 78.0 1016.2 3.2 WNW 6.4 0.0
09:45 15.4 81.0 1016.2 1.6 WNW 6.4 0.0
09:50 15.2 84.0 1016.2 4.8 NNW 6.4 0.0
09:55 15.2 83.0 1016.2 0.0 N 4.8 0.0
10:00 15.4 83.0 1016.2 0.0 NW 4.8 0.0
10:05 15.7 81.0 1016.3 3.2 NW 4.8 0.0
10:10 15.6 80.0 1016.3 3.2 WNW 6.4 0.0
10:15 15.7 83.0 1016.2 3.2 W 6.4 0.0
10:20 16.0 81.0 1016.1 1.6 E 8.0 0.0
10:25 16.5 82.0 1016.2 4.8 E 8.0 0.0
10:30 16.7 77.0 1016.1 3.2 E 9.7 0.0
10:35 16.8 79.0 1016.2 0.0 ENE 9.7 0.0
10:40 16.9 76.0 1016.2 0.0 NE 4.8 0.0
10:45 16.8 79.0 1016.1 3.2 SE 11.3 0.0
10:50 16.9 76.0 1016.1 1.6 SE 11.3 0.0
10:55 16.9 78.0 1016.0 4.8 E 9.7 0.0
10:55 16.9 78.0 1016.0 4.8 E 9.7 0.0
11:05 16.8 79.0 1016.1 3.2 E 9.7 0.0
11:10 16.8 79.0 1016.0 3.2 E 9.7 0.0
11:15 17.1 79.0 1016.0 6.4 ESE 11.3 0.0
11:20 17.0 79.0 1016.1 3.2 ESE 11.3 0.0
11:25 16.8 79.0 1016.1 3.2 ESE 9.7 0.0
11:30 16.6 80.0 1016.1 3.2 ESE 6.4 0.0
11:35 16.4 81.0 1016.1 3.2 E 12.9 0.0
11:40 16.3 82.0 1016.1 1.6 E 12.9 0.0
11:45 16.2 83.0 1016.2 0.0 ESE 11.3 0.0
11:50 16.1 82.0 1016.3 3.2 SE 11.3 0.0
11:55 15.9 83.0 1016.2 4.8 ESE 6.4 0.0
12:00 15.9 83.0 1016.3 0.0 SE 6.4 0.0
12:05 15.8 82.0 1016.3 0.0 SE 4.8 0.0
12:10 15.8 81.0 1016.2 1.6 ESE 6.4 0.0
12:15 15.8 82.0 1016.3 3.2 ESE 6.4 0.0
12:20 15.8 83.0 1016.2 0.0 ESE 4.8 0.0
12:25 16.0 83.0 1016.3 3.2 SSE 4.8 0.0
12:30 16.0 80.0 1016.2 0.0 E 6.4 0.0
12:35 16.2 81.0 1016.2 1.6 SE 6.4 0.0
12:35 16.2 79.0 1016.1 3.2 SSE 6.4 0.0
12:45 16.3 79.0 1016.0 9.7 E 12.9 0.0
12:50 16.3 77.0 1016.1 4.8 ESE 12.9 0.0
12:55 16.2 78.0 1016.1 4.8 SSE 9.7 0.0
13:00 16.2 77.0 1016.1 0.0 ESE 6.4 0.0
13:05 16.2 80.0 1016.1 6.4 ESE 11.3 0.0
13:10 16.1 79.0 1016.1 6.4 SSE 11.3 0.0
13:15 15.9 80.0 1016.0 3.2 ESE 11.3 0.0
13:20 16.2 80.0 1016.0 3.2 ESE 11.3 0.0
13:25 15.9 80.0 1016.0 6.4 E 11.3 0.0
13:30 15.7 80.0 1015.9 11.3 ESE 11.3 0.0
13:35 15.5 79.0 1015.9 3.2 SE 11.3 0.0
13:40 15.6 81.0 1015.9 1.6 ESE 9.7 0.0
13:45 15.9 79.0 1015.8 3.2 SE 9.7 0.0
13:50 16.3 77.0 1015.8 6.4 ESE 9.7 0.0
13:55 16.5 75.0 1015.8 8.0 ESE 12.9 0.0
Màxima 17.1 96.0 1016.3 20.9 WSW 20.9 0.2
Mínima 9.8 75.0 1012.5
Total 0.2